Weather History for Sussex, NJ

Change the Weather History Date:

Monday, February 11, 2013

  Actual Average Record
Temperature  
Mean Temperature 32 °F -  
Max Temperature 39 °F 36 °F 62 °F (2009)
Min Temperature 24 °F 11 °F -15 °F (1962)
Degree Days  
Heating Degree Days 34    
Moisture  
Dew Point 31 °F    
Average Humidity 91    
Maximum Humidity 100    
Minimum Humidity 69    
Precipitation  
Precipitation 0.15 in - - ()
Sea Level Pressure  
Sea Level Pressure 29.89 in    
Wind  
Wind Speed 1 mph (SW)    
Max Wind Speed 5 mph    
Max Gust Speed -    
Visibility 2 miles    
Events Fog , Rain , Snow    
Averages and records for this station are not official NWS values.
T = Trace of Precipitation, MM = Missing Value Source: NWS Daily Summary

Daily Weather History Graph

Daily Weather History Graph

Search for Another Location

Airport:

Trip Planner

Search our weather history database for the weather conditions in past years. The results will help you decide how hot, cold, wet, or windy it might be!

Date:

Astronomy

Feb. 11, 2013 Rise Set
Actual Time 6:58 AM EST 5:28 PM EST
Civil Twilight 6:29 AM EST 5:56 PM EST
Nautical Twilight 5:57 AM EST 6:28 PM EST
Astronomical Twilight 5:25 AM EST 7:01 PM EST
Moon 7:19 AM EST (2/11) 7:23 PM EST (2/11)
Length of Visible Light 11h 26m
Length of Day
10h 29m
Waxing Crescent, 3% of the Moon is Illuminated
Feb 11
Waxing Crescent
Feb 17
First Quarter
Feb 25
Full
Mar 4
Last Quarter
Mar 11
New

Hourly Weather History & Observations

Time (EST) Temp. Windchill Dew Point Humidity Pressure Visibility Wind Dir Wind Speed Gust Speed Precip Events Conditions
12:53 AM 24.1 °F - 16.0 °F 71% 30.27 in 10.0 mi Calm Calm - N/A   Scattered Clouds
1:53 AM 24.1 °F - 15.1 °F 69% 30.25 in 10.0 mi Calm Calm - N/A   Scattered Clouds
2:53 AM 25.0 °F - 16.0 °F 69% 30.22 in 10.0 mi Calm Calm - N/A   Overcast
3:53 AM 26.1 °F - 17.1 °F 69% 30.18 in 10.0 mi Calm Calm - N/A   Overcast
4:23 AM 26.6 °F - 17.6 °F 69% 30.16 in 2.5 mi Calm Calm - 0.00 in Snow Light Snow
4:34 AM 26.6 °F - 19.4 °F 74% 30.14 in 3.0 mi Calm Calm - 0.00 in Snow Light Snow
4:53 AM 26.1 °F - 19.9 °F 78% 30.14 in 6.0 mi Calm Calm - 0.01 in   Overcast
5:32 AM 28.4 °F - 23.0 °F 80% 30.11 in 5.0 mi Calm Calm - 0.01 in Rain Light Freezing Rain
5:53 AM 28.9 °F - 24.1 °F 82% 30.12 in 8.0 mi Calm Calm - 0.01 in Rain Light Freezing Rain
6:01 AM 28.4 °F - 24.8 °F 86% 30.10 in 7.0 mi Calm Calm - 0.00 in   Overcast
6:30 AM 28.4 °F - 26.6 °F 93% 30.09 in 4.0 mi Calm Calm - 0.00 in   Overcast
6:37 AM 28.4 °F 24.6 °F 26.6 °F 93% 30.08 in 4.0 mi ENE 3.5 mph - 0.01 in   Overcast
6:53 AM 28.9 °F - 26.1 °F 89% 30.07 in 4.0 mi Calm Calm - 0.01 in   Overcast
7:22 AM 30.2 °F - 28.4 °F 93% 30.05 in 3.0 mi Calm Calm - 0.01 in   Overcast
7:27 AM 30.2 °F - 28.4 °F 93% 30.05 in 2.5 mi Calm Calm - 0.01 in   Overcast
7:39 AM 30.2 °F - 28.4 °F 93% 30.04 in 1.8 mi Calm Calm - 0.02 in   Overcast
7:53 AM 30.9 °F - 28.9 °F 92% 30.05 in 1.5 mi Calm Calm - 0.03 in   Overcast
8:09 AM 30.2 °F - 28.4 °F 93% 30.02 in 1.0 mi Calm Calm - 0.02 in   Overcast
8:17 AM 30.2 °F - 30.2 °F 100% 30.03 in 0.8 mi Calm Calm - 0.03 in   Overcast
8:29 AM 33.8 °F - 30.2 °F 87% 30.02 in 1.0 mi Calm Calm - 0.04 in   Overcast
8:53 AM 32.0 °F - 30.9 °F 96% 30.02 in 0.8 mi Calm Calm - 0.05 in   Overcast
9:43 AM 33.8 °F - 30.2 °F 87% 29.97 in 0.5 mi Calm Calm - 0.03 in Fog , Rain Light Rain
9:53 AM 33.1 °F - 32.0 °F 96% 29.97 in 1.2 mi Calm Calm - 0.04 in   Overcast
10:28 AM 33.8 °F - 32.0 °F 93% 29.94 in 1.2 mi Calm Calm - 0.00 in   Overcast
10:33 AM 33.8 °F - 32.0 °F 93% 29.94 in 1.8 mi Calm Calm - 0.00 in   Overcast
10:45 AM 33.8 °F - 32.0 °F 93% 29.94 in 1.2 mi Calm Calm - 0.00 in   Overcast
10:48 AM 33.8 °F - 32.0 °F 93% 29.94 in 1.5 mi Calm Calm - 0.00 in   Overcast
10:53 AM 34.0 °F - 33.1 °F 96% 29.96 in 1.8 mi Calm Calm - 0.00 in   Overcast
11:03 AM 33.8 °F - 32.0 °F 93% 29.92 in 1.0 mi Calm Calm - N/A   Overcast
11:05 AM 33.8 °F - 33.8 °F 100% 29.92 in 0.8 mi Calm Calm - N/A   Overcast
11:20 AM 35.6 °F - 33.8 °F 93% 29.91 in 1.2 mi Calm Calm - N/A   Overcast
11:53 AM 35.1 °F - 34.0 °F 96% 29.89 in 1.0 mi Calm Calm - N/A   Overcast
12:08 PM 35.6 °F 32.8 °F 35.6 °F 100% 29.86 in 2.0 mi West 3.5 mph - N/A   Overcast
12:22 PM 37.4 °F 34.9 °F 35.6 °F 93% 29.84 in 5.0 mi SSW 3.5 mph - N/A   Overcast
12:53 PM 39.0 °F 35.7 °F 37.0 °F 93% 29.82 in 9.0 mi SW 4.6 mph - N/A   Overcast
1:53 PM 39.0 °F 36.8 °F 37.0 °F 93% 29.80 in 7.0 mi SW 3.5 mph - N/A   Overcast
2:33 PM 39.2 °F 35.9 °F 37.4 °F 93% 29.76 in 3.0 mi SW 4.6 mph - N/A   Overcast
2:53 PM 39.0 °F 36.8 °F 37.0 °F 93% 29.76 in 4.0 mi SSW 3.5 mph - N/A   Overcast
3:10 PM 39.2 °F 35.9 °F 37.4 °F 93% 29.74 in 1.8 mi SW 4.6 mph - N/A   Overcast
3:26 PM 39.2 °F 37.0 °F 37.4 °F 93% 29.72 in 1.0 mi Variable 3.5 mph - N/A   Overcast
3:37 PM 39.2 °F 35.9 °F 37.4 °F 93% 29.72 in 0.8 mi SSW 4.6 mph - N/A   Overcast
3:53 PM 39.0 °F 36.8 °F 37.0 °F 93% 29.73 in 0.8 mi SW 3.5 mph - N/A   Overcast
4:08 PM 39.2 °F 37.0 °F 37.4 °F 93% 29.71 in 1.0 mi SW 3.5 mph - N/A   Overcast
4:31 PM 39.2 °F 37.0 °F 37.4 °F 93% 29.71 in 0.8 mi SSW 3.5 mph - N/A   Overcast
4:53 PM 37.9 °F 34.4 °F 37.0 °F 97% 29.72 in 0.8 mi SW 4.6 mph - N/A   Overcast
5:53 PM 37.9 °F - 36.0 °F 93% 29.69 in 0.2 mi Calm Calm - N/A Fog Fog
6:53 PM 37.0 °F - 36.0 °F 96% 29.68 in 0.5 mi Calm Calm - N/A Fog Fog
7:53 PM 36.0 °F - 35.1 °F 97% 29.68 in 0.2 mi Calm Calm - N/A Fog Fog
8:11 PM 35.6 °F - 33.8 °F 93% 29.66 in 0.5 mi Calm Calm - N/A Fog Fog
8:27 PM 35.6 °F - 33.8 °F 93% 29.66 in 0.5 mi Calm Calm - N/A Fog Fog
8:40 PM 37.4 °F - 35.6 °F 93% 29.68 in 1.5 mi Calm Calm - N/A   Overcast
8:53 PM 35.1 °F 32.2 °F 35.1 °F 100% 29.70 in 1.2 mi SE 3.5 mph - N/A   Overcast
9:01 PM 35.6 °F - 33.8 °F 93% 29.69 in 0.5 mi Calm Calm - N/A Fog Fog
9:15 PM 35.6 °F - 33.8 °F 93% 29.69 in 1.0 mi Calm Calm - N/A   Overcast
9:31 PM 35.6 °F - 35.6 °F 100% 29.68 in 2.0 mi Calm Calm - N/A   Overcast
9:43 PM 35.6 °F - 35.6 °F 100% 29.69 in 1.2 mi Calm Calm - N/A   Overcast
9:51 PM 35.6 °F - 33.8 °F 93% 29.69 in 0.5 mi Calm Calm - N/A Fog Fog
9:53 PM 35.1 °F - 34.0 °F 96% 29.71 in 0.5 mi Calm Calm - N/A Fog Fog
10:27 PM 35.6 °F - 33.8 °F 93% 29.70 in 0.5 mi Calm Calm - N/A Fog Fog
10:34 PM 35.6 °F - 33.8 °F 93% 29.70 in 0.5 mi Calm Calm - N/A Fog Fog
10:53 PM 34.0 °F - 33.1 °F 96% 29.71 in 0.2 mi Calm Calm - N/A Fog Fog
11:53 PM 32.0 °F - 30.9 °F 96% 29.70 in 0.2 mi Calm Calm - N/A Fog Fog